User: anonymous
Location: Unspecified
(0.0000°N, 0.0000°E)
Time: 20:41:28
(UTC+02:00)
Language:

Cosmos 1933 - Orbit

View from above orbital plane
View from above orbital plane
View from above satellite
View from above satellite

Ground track
Ground track

The orbit data is extracted from the following two-line orbital elements,

1 18958U 88020A   14107.87452314  .00003121  00000-0  24644-3 0  2821
2 18958 082.5289 137.8134 0010819 245.7906 114.2188 15.00345699417937
Epoch (UTC): 17 April 2014 20:59:18
Eccentricity: 0.0010819
inclination: 82.5289°
perigee height: 558 km
apogee height: 573 km
right ascension of ascending node: 137.8134°
argument of perigee: 245.7906°
revolutions per day: 15.00345699
mean anomaly at epoch: 114.2188°
orbit number at epoch: 41793

The dashed part of the orbit path shows where the satellite is in the earth's shadow,  

DLR